HST 1 20580U 90037B 26037.81329490 .00008603 00000+0 28897-3 0 9991 2 20580 28.4665 250.5538 0001882 124.2340 235.8434 15.28986369768581 POLAR 1 23802U 96013A 26037.09930052 .00000226 00000+0 00000+0 0 9998 2 23802 79.7044 228.5430 6337515 213.5146 82.2754 1.29845938143155 SWAS 1 25560U 98071A 26037.83786154 .00004857 00000+0 31675-3 0 9991 2 25560 69.8950 203.4136 0002728 104.8330 255.3136 15.08554549477609 CXO 1 25867U 99040B 26039.80248350 .00000763 00000+0 00000+0 0 9994 2 25867 54.0420 120.5771 8039148 310.7993 0.8658 0.37804264 16832 XMM-NEWTON 1 25989U 99066A 26039.70241284 .00000090 00000+0 00000+0 0 9998 2 25989 65.1308 284.6769 4721165 67.1530 359.9463 0.50132933 22366 TERRA 1 25994U 99068A 26038.24054179 .00000642 00000+0 14007-3 0 9998 2 25994 97.9658 92.8284 0000943 283.6041 148.8653 14.60981450390632 CLUSTER II-FM7 (SAMBA) 1 26410U 00041A 26023.07807862 .00004677 00000+0 00000+0 0 9991 2 26410 148.3592 29.7174 8835954 245.6118 359.2301 0.44786329 19664 CLUSTER II-FM8 (TANGO) 1 26464U 00045B 26019.78457485 .00005071 00000+0 00000+0 0 9998 2 26464 148.5838 29.9991 8833034 245.7591 359.3805 0.44425532 19644 ODIN 1 26702U 01007A 26038.07375140 .00046597 00000+0 67395-3 0 9994 2 26702 97.4136 72.9217 0001464 266.2522 93.8565 15.55784414369072 TIMED 1 26998U 01055B 26038.33152646 .00002647 00000+0 24605-3 0 9992 2 26998 74.0692 136.4178 0002199 310.3902 49.7090 14.94924559311414 CORIOLIS 1 27640U 03001A 26038.04651046 .00000194 00000+0 11187-3 0 9992 2 27640 98.7155 46.9061 0013248 224.7786 135.2322 14.19900117195754 SORCE 1 27651U 03004A 26038.13355750 .00004845 00000+0 36504-3 0 9997 2 27651 39.9904 283.2365 0017293 202.2186 157.7860 15.02838802252324 MOST 1 27843U 03031D 26037.97597201 .00000129 00000+0 79417-4 0 9992 2 27843 98.7078 47.5029 0008768 268.4412 91.5761 14.21290513172218 SCISAT 1 1 27858U 03036A 26038.22365378 .00001012 00000+0 13449-3 0 9994 2 27858 73.9287 69.5327 0006932 175.6021 184.5217 14.81251707212203 SWIFT 1 28485U 04047A 26038.32141684 .00078168 00000+0 10414-2 0 9991 2 28485 20.5538 97.8117 0002230 313.6959 46.3299 15.56410053166521 HINODE (SOLAR-B) 1 29479U 06041A 26038.11298721 .00001015 00000+0 18363-3 0 9992 2 29479 98.0635 56.1450 0017101 345.1459 14.9242 14.68421359 35784 SHIJIAN-6 02A (SJ-6 02A) 1 29505U 06046A 26038.27235234 .00007361 00000+0 39499-3 0 9997 2 29505 97.6547 78.3961 0002286 201.3451 158.7686 15.15246626 52588 SHIJIAN-6 02B (SJ-6 02B) 1 29506U 06046B 26038.29761918 .00003189 00000+0 25515-3 0 9991 2 29506 97.6998 68.2950 0013529 138.0897 222.1365 15.00842359 51259 FGRST (GLAST) 1 33053U 08029A 26038.08973958 .00005335 00000+0 20594-3 0 9999 2 33053 25.5835 27.2728 0008100 229.8961 130.0868 15.23082618975977 SDO 1 36395U 10005A 26033.15753127 -.00000091 00000+0 00000+0 0 9996 2 36395 34.3665 88.3951 0000722 125.3144 233.1380 1.00276361 58706 CRYOSAT 2 1 36508U 10013A 26038.30513304 .00000216 00000+0 52992-4 0 9994 2 36508 92.0221 245.8506 0002499 82.6186 277.5305 14.51904180839232 X-SAT 1 37389U 11015C 26038.27329847 .00000483 00000+0 22291-3 0 9992 2 37389 98.3386 21.5822 0014361 9.3586 350.7860 14.25160002769175 GCOM-W1 (SHIZUKU) 1 38337U 12025A 26038.32621251 .00000928 00000+0 21595-3 0 9998 2 38337 98.2274 340.8159 0001382 80.4376 34.7302 14.57137042730126 NUSTAR 1 38358U 12031A 26038.33335648 .00030676 00000+0 19091-2 0 9991 2 38358 6.0276 287.1660 0008879 328.0415 232.1098 15.07288227 1306 NEOSSAT 1 39089U 13009D 26038.10248724 .00000294 00000+0 11649-3 0 9997 2 39089 98.4108 221.2469 0009870 274.7338 85.2721 14.35768299678072 BRITE-AUSTRIA 1 39091U 13009F 26038.02621380 .00000344 00000+0 13168-3 0 9998 2 39091 98.3922 220.7054 0009065 268.6853 91.3295 14.36477382678369 IRIS 1 39197U 13033A 26038.25056120 .00002131 00000+0 25171-3 0 9994 2 39197 97.9394 237.8823 0025142 26.7280 333.5224 14.85543427681082 HISAKI (SPRINT-A) 1 39253U 13049A 26037.32795632 .00000110 00000+0 63976-4 0 9990 2 39253 29.7181 165.2985 0136812 35.8391 325.1273 13.55527625613653 CASSIOPE 1 39265U 13055A 26038.28778646 .00051421 -35820-6 63973-3 0 9995 2 39265 80.9162 223.4198 0324938 137.5029 225.1858 15.16168963647923 STSAT-3 1 39422U 13066G 26038.23339499 .00002429 00000+0 19020-3 0 9998 2 39422 97.6087 10.4540 0014547 110.0074 250.2718 15.01866869664693 SWARM B 1 39451U 13067A 26038.27545363 .00005880 00000+0 21713-3 0 9990 2 39451 87.7449 21.7062 0003057 100.2219 259.9374 15.27551659663405 SWARM A 1 39452U 13067B 26038.28245281 .00013807 00000+0 26320-3 0 9995 2 39452 87.3329 104.4144 0002903 93.8952 266.2640 15.48035478686130 SWARM C 1 39453U 13067C 26038.28235026 .00014033 00000+0 26750-3 0 9991 2 39453 87.3326 102.9973 0002901 93.3371 266.8220 15.48037742686090 BRITE-CA1 (TORONTO) 1 40020U 14033L 26038.32047613 .00001353 00000+0 21172-3 0 9999 2 40020 97.9525 169.8260 0078414 333.5400 26.1813 14.72381209623109 OCO 2 1 40059U 14035A 26038.30149671 .00000830 00000+0 19423-3 0 9993 2 40059 98.2279 341.5358 0001491 72.5105 287.6257 14.57140225617137 BRITE-PL2 (HEWELIUSZ) 1 40119U 14049B 26038.26802387 .00003394 00000+0 32315-3 0 9993 2 40119 97.8980 149.4288 0014214 175.2222 184.9136 14.94017321622045 MMS 1 1 40482U 15011A 26038.33335648 -.00001913 00000+0 00000+0 0 9993 2 40482 70.4134 350.5917 8449925 164.7192 13.7819 0.28267276 1392 MMS 2 1 40483U 15011B 26038.33335648 -.00001914 00000+0 00000+0 0 9995 2 40483 70.4097 350.5828 8451392 164.7380 13.7470 0.28265068 1392 MMS 3 1 40484U 15011C 26038.33335648 -.00001913 00000+0 00000+0 0 9995 2 40484 70.4158 350.5988 8451265 164.7337 13.7434 0.28265018 1394 MMS 4 1 40485U 15011D 26038.33335648 -.00001914 00000+0 00000+0 0 9997 2 40485 70.4168 350.5904 8452651 164.7173 13.7775 0.28267276 1398 ASTROSAT 1 40930U 15052A 26038.10744447 .00002601 00000+0 23628-3 0 9991 2 40930 5.9979 11.4876 0008263 333.3093 26.6610 14.82206137560496 DAMPE 1 41173U 15078A 26038.26661622 .00003068 00000+0 10687-3 0 9998 2 41173 97.4571 43.1237 0012137 169.0401 191.1106 15.30388726564676 PISAT 1 41784U 16059B 26037.96358468 .00001727 00000+0 30315-3 0 9993 2 41784 97.8179 44.0433 0027685 261.3097 98.4972 14.68691801500627 HXMT (HUIYAN) 1 42758U 17034A 26037.90253491 .00009087 00000+0 45674-3 0 9994 2 42758 43.0135 187.7820 0031038 37.9563 322.3465 15.17057041477863 FLYING LAPTOP 1 42831U 17042G 26038.30044396 .00003182 00000+0 25774-3 0 9991 2 42831 97.4223 199.3435 0015608 200.3033 159.7572 15.00303748466971 ZHANGHENG 1-01 (CSES-1) 1 43194U 18015C 26038.32223398 .00014028 00000+0 63013-3 0 9997 2 43194 97.6708 201.5007 0016033 8.3829 351.7671 15.21160473444909 SALSAT 1 46495U 20068K 26038.28426372 .00012507 00000+0 46613-3 0 9994 2 46495 97.8838 33.6722 0011611 46.0409 314.1785 15.27539060295518 IXPE 1 49954U 21121A 26038.33335648 .00031197 00000+0 18597-2 0 9994 2 49954 0.2293 218.8831 0007645 278.4918 144.0970 15.08810403 5898